Location: Carthage
(33.8834°N, 106.6595°W)
Time: 09:20:12
(UTC+00:00)

Cosmos 1459 Rocket - Pass Details

Date: 13 February 2026
Orbit: 937 x 997 km, 83.0° (Epoch: 11 March)

Event Time Altitude Azimuth Distance (km) Brightness Sun altitude
Rises 13:01:27 0° 177° (S) 3,580 7.1 -11.3°
Reaches altitude 10° 13:03:55 10° 175° (S) 2,638 6.5 -10.8°
Maximum altitude 13:09:53 68° 93° (E) 1,002 4.4 -9.6°
Drops below altitude 10° 13:15:54 10° 12° (NNE) 2,663 6.3 -8.3°
Sets 13:18:24 0° 10° (N) 3,617 7.0 -7.8°
